Wind_Speed
17 16 14 14 14 14 14 15 15 15 15 15 15 14 13 13 14 9 10 6 11 9 11 9 13 13 12 13 17 14 4 4 10 13 11 11 3 6 10 28 3 3 8 23 26
17 17 16 15 14 15 14 15 15 16 16 16 15 14 12 12 11 15 10 9 8 10 12 12 10 11 12 17 6 0 5 6 4 11 5 8 9 15 16 18 12 13 20 29 26
18 18 17 16 15 15 15 15 16 16 17 17 16 14 11 9 7 6 13 8 11 14 16 11 25 26 13 8 4 6 9 2 7 8 6 10 2 13 23 8 15 18 15 20 22
18 18 18 18 16 15 16 16 16 17 17 16 15 13 10 3 1 6 11 8 11 12 14 5 19 11 7 7 7 4 4 1 2 4 5 5 6 4 21 13 15 16 18 18 18
19 18 19 18 17 16 15 16 17 16 17 14 12 11 5 7 4 11 13 12 13 12 19 17 15 14 13 22 8 4 20 1 1 5 4 7 6 8 12 6 20 18 19 19 17
20 19 18 18 17 16 16 16 17 17 15 11 9 7 5 12 4 13 13 15 13 14 23 14 6 14 13 3 6 18 21 21 13 8 6 5 5 3 13 11 17 19 18 18 18
20 18 17 17 16 16 15 16 16 15 10 8 7 4 11 12 7 10 13 14 13 18 16 18 12 16 26 23 6 24 19 26 27 9 7 6 6 4 16 14 16 19 18 18 17
21 19 16 16 15 15 14 14 15 11 7 5 6 5 8 5 5 10 13 14 16 16 15 14 16 23 20 15 11 7 4 7 15 14 11 21 18 17 16 14 16 18 17 17 16
23 20 17 14 14 13 13 13 11 7 4 5 4 7 14 4 10 14 15 14 15 13 14 15 3 26 23 20 11 6 10 24 8 8 14 9 22 25 17 15 16 17 17 16 15
23 20 17 14 12 12 11 12 8 6 4 6 14 9 15 14 14 14 14 14 11 12 14 17 15 6 5 5 7 14 15 8 7 10 8 9 6 16 16 16 18 16 18 16 17
21 16 10 8 8 10 8 4 4 6 13 12 13 13 3 4 1 8 14 15 13 15 16 18 12 6 11 24 23 27 17 19 28 7 6 6 12 5 18 16 16 19 18 19 19
18 10 4 4 6 9 6 6 8 7 7 22 18 14 4 3 9 14 14 14 13 15 18 15 15 10 11 26 21 17 14 7 24 22 11 19 13 10 8 18 17 20 19 21 20
15 7 2 2 5 8 12 6 7 8 7 12 17 16 15 16 16 17 17 16 19 21 20 20 16 11 15 36 30 17 14 9 11 13 5 2 10 19 20 13 17 18 21 20 22
12 6 3 3 5 11 9 3 7 5 6 13 12 11 13 7 17 18 26 16 19 22 22 24 14 16 21 33 19 19 16 11 11 15 14 12 5 7 12 15 12 20 20 20 22
10 6 2 7 12 7 5 7 7 7 5 11 13 7 6 14 17 13 28 21 19 20 23 22 24 22 20 21 13 15 17 16 17 18 20 8 7 4 5 7 26 29 20 21 21
9 4 4 8 9 7 8 10 9 6 1 7 6 10 12 15 15 15 4 13 19 20 21 25 25 27 26 25 14 15 18 18 22 18 16 4 17 10 1 22 31 31 21 20 22
7 5 5 8 9 10 10 9 6 7 3 3 1 3 10 9 8 12 13 12 11 14 17 22 24 24 23 24 22 16 17 14 15 14 7 15 3 4 21 19 21 24 20 20 19
12 12 11 10 9 8 10 9 11 4 8 7 5 8 11 12 3 6 10 12 16 20 15 16 16 19 16 24 23 20 17 13 20 17 3 8 5 6 18 20 4 9 13 20 21
14 15 10 4 4 5 7 8 5 10 12 10 14 13 12 13 6 10 11 13 15 10 10 12 20 23 22 7 15 19 15 18 22 22 18 7 6 6 22 20 10 9 5 20 19
9 15 11 5 2 8 6 13 4 8 10 10 12 11 11 15 7 6 13 9 7 6 7 14 16 19 24 20 8 12 14 13 10 18 19 15 6 8 23 15 10 4 9 17 17
8 6 6 5 5 6 9 5 4 7 6 8 13 14 15 15 16 15 12 18 4 8 11 14 17 19 19 17 18 6 10 16 15 11 14 14 8 8 11 9 7 12 10 11 17
8 5 7 6 7 4 4 6 2 5 7 5 6 11 10 13 12 15 15 10 12 13 11 16 18 17 22 23 23 19 19 19 10 12 9 13 17 5 10 3 2 14 10 13 7
7 4 7 9 5 4 7 7 2 6 11 9 9 13 13 11 14 11 16 14 4 8 9 10 8 13 16 17 20 19 19 12 15 18 19 10 13 17 4 11 2 9 7 9 11
5 4 4 1 5 11 10 8 7 3 5 5 11 12 11 12 13 13 17 17 6 8 9 1 13 19 16 21 24 26 25 23 19 13 17 18 16 17 7 5 12 9 5 9 9
4 4 8 6 8 8 10 8 8 8 11 12 6 9 11 11 13 14 16 18 20 0 8 8 17 19 21 23 24 28 25 25 24 20 19 20 20 8 8 19 7 5 6 5 7
7 5 9 11 10 9 3 10 8 11 10 12 12 13 12 12 13 18 18 17 17 18 18 18 20 22 25 23 23 26 28 25 26 26 23 23 26 22 15 13 14 9 13 5 4
16 14 7 10 7 8 8 10 12 12 6 9 8 12 13 14 14 15 17 19 20 21 20 19 17 18 22 20 22 24 22 25 25 25 25 23 25 22 23 20 11 13 8 8 7
Wind_Direction
348 347 344 342 341 341 339 336 335 333 330 328 324 317 308 304 301 284 247 240 201 231 188 214 225 238 228 247 248 351 296 150 195 156 200 124 136 138 76 4 68 98 144 147 147
342 340 338 334 333 333 334 332 330 328 327 325 322 316 309 314 292 257 234 230 220 195 194 212 218 235 253 215 97 240 283 276 55 186 131 131 157 81 69 325 276 83 126 140 158
335 334 331 329 326 327 327 327 325 325 324 322 320 315 317 333 280 145 197 220 197 201 217 310 21 28 348 9 210 180 240 274 54 26 353 90 167 131 107 230 246 137 141 143 166
328 326 325 322 319 320 321 321 320 320 319 317 315 310 320 280 12 130 172 179 179 203 241 103 56 346 322 291 326 201 256 43 204 121 152 112 83 208 142 197 196 165 143 159 169
326 321 318 316 312 312 314 314 315 315 313 309 307 306 323 243 247 159 171 168 174 207 244 131 150 187 181 226 216 198 263 306 112 154 240 102 126 68 108 114 159 133 150 167 175
322 319 314 310 307 306 307 309 311 312 308 300 295 299 259 272 109 163 168 176 186 214 250 273 191 256 293 232 91 359 29 340 311 185 195 198 164 185 114 143 135 143 157 169 182
318 313 310 308 302 301 302 304 308 309 303 284 270 265 261 264 147 179 188 199 217 238 276 307 328 306 316 20 42 83 58 285 289 255 185 191 172 173 129 146 146 153 164 175 178
317 311 306 302 299 294 293 297 304 303 290 245 250 239 273 165 203 196 205 225 244 265 269 287 303 50 35 314 5 46 144 255 255 202 115 77 297 280 142 155 157 161 175 176 183
313 305 301 298 295 289 287 289 288 287 262 223 233 228 268 163 218 214 216 235 238 257 265 274 11 82 75 298 314 249 220 208 124 171 139 182 195 231 157 162 165 173 180 180 183
315 305 292 291 285 283 278 288 267 270 268 252 265 263 240 231 208 210 218 244 275 270 265 254 251 108 98 199 263 304 202 80 219 164 172 196 232 155 168 173 170 184 182 187 183
330 322 305 278 272 279 293 261 211 207 222 226 203 216 125 99 37 228 212 235 254 262 269 274 307 123 265 197 242 263 59 39 314 298 225 240 223 242 166 183 185 176 191 187 190
346 339 312 258 264 279 278 250 25 339 285 224 248 250 280 184 232 234 208 232 246 254 266 257 274 158 320 310 256 267 102 144 260 286 304 36 355 352 170 182 200 186 186 188 192
356 359 343 255 267 265 226 335 328 321 267 217 214 228 235 219 241 257 194 233 247 265 258 262 276 96 32 305 290 279 94 270 300 305 273 61 331 340 319 299 198 207 184 192 186
8 14 355 308 272 229 212 347 318 315 273 185 201 227 225 241 254 241 251 217 249 256 266 280 280 165 128 269 272 287 333 303 311 308 300 175 192 275 289 318 286 205 195 188 186
9 15 27 295 305 294 343 316 325 262 271 149 148 114 232 198 259 236 222 245 236 263 264 263 271 278 274 260 287 305 327 321 311 297 285 259 192 204 226 60 309 287 200 191 184
1 345 304 295 265 311 313 306 272 236 268 140 147 201 205 217 239 261 205 241 260 251 258 269 275 283 285 292 295 296 298 291 285 270 266 19 68 333 186 206 202 254 201 194 183
313 322 288 282 315 324 313 277 237 255 159 108 328 211 262 260 214 209 223 215 224 244 249 257 261 258 253 265 271 258 268 277 280 282 347 29 88 22 232 241 248 182 190 185 180
280 279 283 253 300 304 286 259 273 43 6 42 310 292 271 285 246 234 251 259 246 227 255 272 281 258 235 231 251 252 259 264 278 292 83 340 360 278 269 258 257 165 175 172 176
283 283 254 290 306 270 265 252 355 15 13 343 315 262 263 233 208 289 280 281 286 8 351 331 310 327 315 299 268 237 238 257 279 287 285 174 235 270 263 219 183 75 125 150 170
303 277 231 335 294 243 250 263 45 28 357 315 302 302 321 331 323 318 296 28 337 5 347 305 296 300 305 312 271 268 302 300 282 286 285 280 242 201 276 224 93 69 127 144 169
272 250 73 336 252 244 251 33 355 40 12 336 336 328 329 322 323 313 310 312 26 328 323 303 290 287 282 287 283 241 236 236 247 250 284 292 294 90 69 29 14 112 18 146 160
310 286 35 326 255 227 352 10 27 307 325 300 293 284 309 331 319 317 311 320 32 356 319 313 311 293 287 297 298 299 257 271 283 233 233 262 279 112 149 62 244 91 36 11 29
302 329 39 306 298 10 46 316 190 338 339 334 317 323 334 314 302 292 300 315 35 357 11 341 301 310 289 260 251 265 273 266 258 284 286 254 269 292 192 125 77 339 58 43 26
284 325 20 35 28 346 6 318 327 118 325 3 315 303 295 305 312 309 295 297 300 274 120 299 275 272 274 286 302 301 303 302 304 253 255 256 263 278 127 181 163 130 47 69 30
358 35 9 313 353 336 314 323 319 329 16 322 299 322 343 321 313 304 315 320 324 334 288 282 277 275 276 283 285 290 290 291 287 286 286 292 297 298 100 91 317 112 78 69 38
2 1 339 283 297 319 274 52 333 354 344 312 304 324 331 307 311 307 312 302 300 298 294 285 279 279 276 279 279 279 276 277 280 281 274 278 281 284 290 138 194 181 145 161 80
8 344 297 292 298 326 19 337 328 323 299 323 315 313 302 313 325 304 291 284 277 281 279 283 286 288 279 292 296 277 272 263 263 265 271 266 272 285 287 289 281 281 171 156 120
Height
791 788 786 784 781 779 776 774 771 769 766 764 761 758 756 754 752 751 745 736 737 740 741 739 741 738 739 736 725 725 749 750 753 753 740 711 731 712 716 751 729 727 733 742 752
789 787 784 782 780 777 775 773 770 767 765 763 760 757 755 753 751 746 735 734 736 739 740 737 735 732 730 721 749 770 758 738 712 715 713 711 716 725 757 774 750 735 731 743 752
788 785 782 780 778 776 773 771 768 766 764 761 758 756 754 753 749 727 731 733 736 737 737 734 738 746 743 739 739 744 744 712 707 704 701 708 712 722 755 783 758 741 742 746 753
786 783 780 777 775 773 771 769 766 764 762 759 757 754 754 756 754 729 730 733 736 738 739 737 750 769 780 759 722 738 709 706 704 701 704 710 704 712 726 734 728 727 737 747 752
783 780 777 774 772 770 769 766 764 762 759 757 755 754 754 748 730 728 730 732 736 738 734 733 752 754 757 740 723 742 722 704 701 702 701 701 709 712 715 713 717 726 737 745 750
780 777 775 772 769 767 766 764 761 759 757 755 754 753 753 747 728 727 730 732 734 736 725 716 719 712 707 722 718 712 717 721 709 700 699 708 709 710 713 712 719 728 738 742 745
777 774 771 769 766 764 762 760 758 756 754 753 752 752 746 733 726 729 731 731 731 726 720 713 712 715 705 738 723 732 754 750 723 702 703 701 721 717 708 711 721 728 733 736 740
772 770 768 765 763 761 759 758 755 754 752 751 751 753 739 725 725 728 729 729 727 723 720 718 715 733 752 748 725 749 759 764 711 701 700 732 780 717 703 713 722 725 730 731 735
768 765 763 762 760 758 757 755 753 752 751 751 751 748 735 724 723 722 724 723 720 719 718 715 722 753 762 791 781 754 764 757 716 693 700 711 747 719 697 708 719 723 727 729 733
762 759 758 758 757 756 754 753 752 752 751 752 749 749 724 722 714 717 719 720 716 714 714 712 712 764 782 796 788 737 755 718 725 699 695 705 706 693 694 701 712 719 722 727 731
758 755 754 754 754 753 753 753 751 749 746 729 721 721 712 713 717 716 716 717 715 717 733 711 733 751 749 759 739 728 723 733 714 687 694 696 696 701 688 695 704 712 717 723 727
756 754 752 752 752 751 752 745 731 732 735 723 718 712 711 711 719 713 713 723 722 735 718 724 735 732 731 724 718 708 724 740 715 688 691 708 708 689 685 687 694 700 709 715 721
756 754 752 751 751 750 745 737 736 733 734 713 709 712 712 713 720 714 706 714 725 729 721 727 716 717 744 736 729 705 724 720 715 693 684 705 740 723 691 697 686 687 692 700 709
759 756 754 752 753 741 737 738 736 734 749 725 718 710 706 708 719 702 701 708 719 730 721 717 700 722 742 749 710 721 689 697 703 709 726 694 794 741 710 710 699 687 686 691 697
761 758 756 753 748 739 740 738 737 733 775 716 711 702 699 716 701 697 694 701 722 723 719 724 713 711 714 707 695 710 690 699 701 709 705 703 726 724 728 756 741 715 681 681 686
762 759 757 754 749 742 740 737 734 760 766 722 705 713 718 710 708 699 702 695 696 713 711 714 694 699 702 690 688 690 701 702 698 699 726 713 761 761 726 710 726 698 671 671 676
762 759 756 753 744 743 740 734 757 762 711 723 717 707 707 708 707 704 712 717 730 744 739 716 708 689 686 705 689 698 716 743 743 728 737 710 728 726 703 668 667 662 660 660 665
760 757 754 750 745 743 739 745 768 724 725 711 715 713 724 705 709 706 714 721 699 706 720 729 733 689 675 690 703 701 708 736 763 747 755 720 759 731 679 658 644 637 641 649 659
757 754 750 743 744 743 741 758 743 737 732 735 727 730 723 707 714 711 713 712 699 699 732 733 727 683 673 665 679 695 715 694 719 709 722 730 728 689 668 659 647 645 642 649 655
757 748 741 741 741 739 746 753 735 732 735 733 748 726 736 717 721 718 716 701 705 697 702 720 741 701 686 671 669 686 679 721 717 757 754 719 715 738 716 668 652 654 649 647 653
756 745 737 739 738 737 750 737 734 727 735 743 744 744 736 737 729 730 727 708 701 709 706 716 725 721 698 702 698 692 703 699 702 720 746 745 716 658 675 659 662 657 652 646 650
756 747 737 737 744 729 738 739 752 734 730 735 734 738 741 738 743 740 737 722 715 719 735 721 729 739 720 685 673 678 691 689 715 725 716 723 714 658 665 665 662 664 664 663 651
759 739 737 735 750 738 734 739 738 744 744 743 748 740 737 749 760 741 731 712 715 727 738 734 741 749 727 703 686 694 683 681 687 690 711 726 713 648 655 665 675 676 669 668 665
764 757 740 736 741 750 754 748 751 737 747 747 752 746 747 750 739 746 740 721 714 719 735 735 745 750 756 735 710 718 703 691 691 707 707 701 695 673 672 673 674 675 674 673 673
767 770 768 765 757 759 754 757 759 759 750 753 754 747 753 766 759 757 744 736 729 735 728 732 750 740 730 723 718 711 710 704 704 697 710 694 690 676 674 681 683 673 677 680 683
788 789 779 770 757 756 764 759 768 761 768 769 766 758 762 770 766 768 759 756 754 738 738 731 746 738 737 725 723 723 708 706 703 697 694 692 691 662 658 668 674 672 675 680 684
803 798 788 774 757 762 765 771 772 769 765 763 766 769 770 764 760 759 755 752 749 752 749 746 745 747 746 732 730 728 714 705 701 693 694 705 684 666 666 666 670 668 670 676 682